Ellipsis — WDE4581 — position and weather

sailwx.info

Track history (hours):
 
Tides and Currents Weather Stations Pressure Air Temp Water Temp Dewpoint Dewpoint Depression Visibility Wind Speed Wind Dir Waves Ship Positions

Ellipsis

Owner: Gulledge, Carl L, Redmond, WA. More information available from US FCC via Universal Licensing System and Coast Guard Vessel Documentation Center.

Last reported at 2016-Jul-24 17:09 UTC. Time now 2016-Jul-26 16:01 UTC.
Position N 48°56' W 125°21'.

Length 19 m.

Type: Pleasure craft. MMSI: 367355160.

Date/timePositionNaut miles runAvg speedWind from/ knotsBaromVisibWave heightAir tempDewpointWater temp
2016-Jul-24 17:09N 48°56' W 125°21'5 8.0
2016-Jul-24 16:34N 48°55' W 125°28'3 3.4
2016-Jul-24 15:31N 48°57' W 125°33'0 0.0
2016-Jul-24 14:31N 48°57' W 125°33'0 0.0
2016-Jul-24 13:32N 48°57' W 125°33'0 0.0
2016-Jul-24 12:32N 48°57' W 125°33'0 0.0
2016-Jul-24 11:31N 48°57' W 125°33'0 0.0
2016-Jul-24 10:31N 48°57' W 125°33'0 0.0
2016-Jul-24 09:31N 48°57' W 125°33'0 0.0
2016-Jul-24 08:32N 48°57' W 125°33'0 0.0
2016-Jul-24 07:32N 48°57' W 125°33'0 0.0
2016-Jul-24 06:29N 48°57' W 125°33'0 0.0
2016-Jul-24 05:32N 48°57' W 125°33'0 0.0
2016-Jul-24 04:32N 48°57' W 125°33'0 0.0
2016-Jul-24 03:32N 48°57' W 125°33'0 0.0
2016-Jul-24 02:32N 48°57' W 125°33'0 0.0
2016-Jul-24 01:32N 48°57' W 125°33'0 0.0
2016-Jul-24 00:32N 48°57' W 125°33'0 0.0
2016-Jul-23 23:32N 48°57' W 125°33'0 0.0
2016-Jul-23 22:32N 48°57' W 125°33'0 0.0
2016-Jul-23 21:32N 48°57' W 125°33'0 0.0
2016-Jul-23 20:29N 48°57' W 125°33'0 0.0
2016-Jul-23 19:32N 48°57' W 125°33'2 2.2
2016-Jul-23 18:33N 48°55' W 125°30'8 0.2
2016-Jul-21 20:26N 48°53' W 125°19'1 0.0
2016-Jul-20 22:33N 48°53' W 125°19'7 6.5
2016-Jul-20 21:33N 48°54' W 125°28'4 4.2
2016-Jul-20 20:31N 48°57' W 125°33'0 0.0
2016-Jul-20 19:31N 48°57' W 125°33'0 0.0
2016-Jul-20 18:31N 48°57' W 125°33'5 5.4
2016-Jul-20 17:34N 48°53' W 125°27'3 0.1
2016-Jul-18 20:33N 48°52' W 125°23'7 0.3
2016-Jul-17 19:06N 48°59' W 125°20'  
Track history (hours):
 
Tides and Currents Weather Stations Pressure Air Temp Water Temp Dewpoint Dewpoint Depression Visibility Wind Speed Wind Dir Waves Ship Positions

Ellipsis

Owner: Gulledge, Carl L, Redmond, WA. More information available from US FCC via Universal Licensing System and Coast Guard Vessel Documentation Center.

Last reported at 2016-Jul-24 17:09 UTC. Time now 2016-Jul-26 16:01 UTC.
Position N 48°56' W 125°21'.

Length 19 m.

Type: Pleasure craft. MMSI: 367355160.

Date/timePositionNaut miles runAvg speedWind from/ knotsBaromVisibWave heightAir tempDewpointWater temp
2016-Jul-24 17:09N 48°56' W 125°21'5 8.0
2016-Jul-24 16:34N 48°55' W 125°28'3 3.4
2016-Jul-24 15:31N 48°57' W 125°33'0 0.0
2016-Jul-24 14:31N 48°57' W 125°33'0 0.0
2016-Jul-24 13:32N 48°57' W 125°33'0 0.0
2016-Jul-24 12:32N 48°57' W 125°33'0 0.0
2016-Jul-24 11:31N 48°57' W 125°33'0 0.0
2016-Jul-24 10:31N 48°57' W 125°33'0 0.0
2016-Jul-24 09:31N 48°57' W 125°33'0 0.0
2016-Jul-24 08:32N 48°57' W 125°33'0 0.0
2016-Jul-24 07:32N 48°57' W 125°33'0 0.0
2016-Jul-24 06:29N 48°57' W 125°33'0 0.0
2016-Jul-24 05:32N 48°57' W 125°33'0 0.0
2016-Jul-24 04:32N 48°57' W 125°33'0 0.0
2016-Jul-24 03:32N 48°57' W 125°33'0 0.0
2016-Jul-24 02:32N 48°57' W 125°33'0 0.0
2016-Jul-24 01:32N 48°57' W 125°33'0 0.0
2016-Jul-24 00:32N 48°57' W 125°33'0 0.0
2016-Jul-23 23:32N 48°57' W 125°33'0 0.0
2016-Jul-23 22:32N 48°57' W 125°33'0 0.0
2016-Jul-23 21:32N 48°57' W 125°33'0 0.0
2016-Jul-23 20:29N 48°57' W 125°33'0 0.0
2016-Jul-23 19:32N 48°57' W 125°33'2 2.2
2016-Jul-23 18:33N 48°55' W 125°30'8 0.2
2016-Jul-21 20:26N 48°53' W 125°19'1 0.0
2016-Jul-20 22:33N 48°53' W 125°19'7 6.5
2016-Jul-20 21:33N 48°54' W 125°28'4 4.2
2016-Jul-20 20:31N 48°57' W 125°33'0 0.0
2016-Jul-20 19:31N 48°57' W 125°33'0 0.0
2016-Jul-20 18:31N 48°57' W 125°33'5 5.4
2016-Jul-20 17:34N 48°53' W 125°27'3 0.1
2016-Jul-18 20:33N 48°52' W 125°23'7 0.3
2016-Jul-17 19:06N 48°59' W 125°20'  

Dump ship's entire track history